Language: 


Des rapports , des résumés tant et plus, au choix de chacun....


Données statistiques de la station
Quotidien Rapport Septembre 3, 2017 Unités:  Métrique    Anglais   les deux
« Précédent Jour
Suivant Jour »
Quotidien Hebdomadaire Mensuel Annuel Actuel
  Haut: Bas: Moyen:
Température: 23.0 °C 0.0 °C 15.2 °C
Pt de rosée: 16.0 °C 7.0 °C 11.2 °C
Humidité: 98 % 0 % 78 %
Vitesse du vent: 16.9 km/h 0.0 km/h 2.2 km/h
Rafales: 18.3 km/h - -
Vent:- - SSW
Pression: 1019.9 hPa 1012.1 hPa -
Précipitation: 0.0 mm    
Historical Graphs
 
 
Données statistiques pour Septembre 3, 2017
Heure Température Point de rosée Pression Vent Vitesse du vent Refales Humidité Pluie (taux horaire)
00:00 10.4 °C 9.0 °C 1019.9 hPa Calm     94 % 0.0 mm
00:05 10.3 °C 9.0 °C 1019.9 hPa Calm     94 % 0.0 mm
00:10 10.3 °C 9.0 °C 1019.9 hPa Calm     94 % 0.0 mm
00:15 10.4 °C 10.0 °C 1018.8 hPa Calm     95 % 0.0 mm
00:20 10.4 °C 10.0 °C 1018.8 hPa Calm     95 % 0.0 mm
00:25 10.4 °C 10.0 °C 1018.8 hPa Calm     95 % 0.0 mm
00:30 10.6 °C 10.0 °C 1019.9 hPa Calm     96 % 0.0 mm
00:35 10.7 °C 10.0 °C 1019.9 hPa Calm     96 % 0.0 mm
00:40 10.7 °C 10.0 °C 1019.9 hPa Calm   4.0 km/h 96 % 0.0 mm
00:45 10.9 °C 11.0 °C 1019.9 hPa Calm   4.0 km/h 96 % 0.0 mm
00:50 10.9 °C 11.0 °C 1019.9 hPa Calm     96 % 0.0 mm
00:55 10.9 °C 11.0 °C 1019.9 hPa Calm     96 % 0.0 mm
01:00 10.9 °C 11.0 °C 1018.8 hPa Calm     97 % 0.0 mm
01:05 10.9 °C 11.0 °C 1018.8 hPa Calm     97 % 0.0 mm
01:10 10.8 °C 10.0 °C 1018.8 hPa Calm     97 % 0.0 mm
01:16 10.6 °C 10.0 °C 1018.8 hPa Calm     96 % 0.0 mm
01:21 10.5 °C 10.0 °C 1018.8 hPa Calm     96 % 0.0 mm
01:26 10.3 °C 10.0 °C 1018.8 hPa Calm     96 % 0.0 mm
01:31 10.3 °C 10.0 °C 1018.8 hPa Calm     96 % 0.0 mm
01:36 10.3 °C 10.0 °C 1018.8 hPa Calm     96 % 0.0 mm
01:41 10.3 °C 10.0 °C 1018.8 hPa Calm     96 % 0.0 mm
01:46 10.2 °C 10.0 °C 1018.8 hPa Calm     97 % 0.0 mm
01:51 10.2 °C 10.0 °C 1018.8 hPa Calm     97 % 0.0 mm
01:56 10.2 °C 10.0 °C 1018.8 hPa Calm     97 % 0.0 mm
02:01 10.1 °C 10.0 °C 1018.8 hPa Calm     97 % 0.0 mm
02:06 9.9 °C 10.0 °C 1018.8 hPa Calm     97 % 0.0 mm
02:11 9.9 °C 10.0 °C 1018.8 hPa Calm     97 % 0.0 mm
02:16 9.8 °C 9.0 °C 1018.2 hPa Calm     97 % 0.0 mm
02:21 9.8 °C 9.0 °C 1018.2 hPa Calm     97 % 0.0 mm
02:26 9.5 °C 9.0 °C 1018.2 hPa Calm     97 % 0.0 mm
02:31 9.4 °C 9.0 °C 1018.8 hPa Calm     97 % 0.0 mm
02:36 9.3 °C 9.0 °C 1018.8 hPa Calm     97 % 0.0 mm
02:41 9.3 °C 9.0 °C 1018.8 hPa Calm     97 % 0.0 mm
02:46 9.2 °C 9.0 °C 1018.8 hPa Calm     97 % 0.0 mm
02:51 9.2 °C 9.0 °C 1018.8 hPa Calm     97 % 0.0 mm
02:56 9.2 °C 9.0 °C 1018.8 hPa Calm     98 % 0.0 mm
03:01 0.0 °C 9.0 °C 1018.8 hPa Calm     0 % 0.0 mm
03:06 0.0 °C 9.0 °C 1018.8 hPa Calm     0 % 0.0 mm
03:12 9.2 °C 9.0 °C 1018.8 hPa Calm     98 % 0.0 mm
03:17 9.2 °C 9.0 °C 1018.8 hPa Calm     98 % 0.0 mm
03:22 9.2 °C 9.0 °C 1018.8 hPa Calm     98 % 0.0 mm
03:27 9.2 °C 9.0 °C 1018.8 hPa Calm     98 % 0.0 mm
03:32 9.2 °C 9.0 °C 1018.8 hPa Calm     98 % 0.0 mm
03:37 9.2 °C 9.0 °C 1018.8 hPa Calm     98 % 0.0 mm
03:42 9.1 °C 9.0 °C 1018.8 hPa Calm     98 % 0.0 mm
03:47 9.1 °C 9.0 °C 1018.8 hPa Calm     98 % 0.0 mm
03:52 8.8 °C 9.0 °C 1018.8 hPa Calm     98 % 0.0 mm
03:57 8.6 °C 9.0 °C 1018.8 hPa Calm     98 % 0.0 mm
04:02 8.4 °C 9.0 °C 1018.2 hPa Calm     98 % 0.0 mm
04:07 8.4 °C 9.0 °C 1018.2 hPa Calm     98 % 0.0 mm
04:12 8.4 °C 9.0 °C 1018.2 hPa Calm     98 % 0.0 mm
04:17 8.3 °C 9.0 °C 1018.2 hPa Calm     98 % 0.0 mm
04:22 8.3 °C 9.0 °C 1018.2 hPa Calm     98 % 0.0 mm
04:27 8.3 °C 9.0 °C 1018.2 hPa Calm     98 % 0.0 mm
04:32 8.3 °C 9.0 °C 1018.2 hPa Calm     98 % 0.0 mm
04:38 8.5 °C 9.0 °C 1018.2 hPa Calm     98 % 0.0 mm
04:43 8.5 °C 9.0 °C 1018.2 hPa Calm     98 % 0.0 mm
04:48 8.5 °C 9.0 °C 1018.2 hPa Calm     98 % 0.0 mm
04:53 8.7 °C 9.0 °C 1018.2 hPa Calm     98 % 0.0 mm
04:58 8.7 °C 9.0 °C 1018.2 hPa Calm     98 % 0.0 mm
05:03 8.8 °C 9.0 °C 1018.2 hPa Calm     98 % 0.0 mm
05:08 8.7 °C 9.0 °C 1018.2 hPa Calm     98 % 0.0 mm
05:13 8.7 °C 9.0 °C 1018.2 hPa Calm     98 % 0.0 mm
05:18 8.6 °C 9.0 °C 1018.2 hPa Calm     98 % 0.0 mm
05:19 8.6 °C 9.0 °C 1018.2 hPa Calm     98 % 0.0 mm
05:23 8.6 °C 9.0 °C 1018.2 hPa Calm     98 % 0.0 mm
05:24 8.6 °C 9.0 °C 1018.2 hPa Calm     98 % 0.0 mm
05:28 8.6 °C 9.0 °C 1018.2 hPa Calm     98 % 0.0 mm
05:33 8.6 °C 9.0 °C 1016.8 hPa Calm     98 % 0.0 mm
05:34 8.6 °C 9.0 °C 1016.8 hPa Calm     98 % 0.0 mm
05:39 8.0 °C 8.0 °C 1016.8 hPa Calm     98 % 0.0 mm
05:44 8.0 °C 8.0 °C 1016.8 hPa Calm     98 % 0.0 mm
05:49 7.7 °C 8.0 °C 1016.8 hPa Calm     98 % 0.0 mm
05:54 7.7 °C 8.0 °C 1016.8 hPa Calm     98 % 0.0 mm
05:59 7.7 °C 8.0 °C 1016.8 hPa Calm     98 % 0.0 mm
06:04 7.7 °C 8.0 °C 1016.8 hPa Calm     98 % 0.0 mm
06:09 7.3 °C 7.0 °C 1016.8 hPa Calm     98 % 0.0 mm
06:14 7.3 °C 7.0 °C 1016.8 hPa Calm     98 % 0.0 mm
06:19 7.3 °C 7.0 °C 1016.8 hPa Calm     98 % 0.0 mm
06:24 7.2 °C 7.0 °C 1016.8 hPa Calm     98 % 0.0 mm
06:29 7.2 °C 7.0 °C 1016.8 hPa Calm     98 % 0.0 mm
06:34 7.4 °C 7.0 °C 1016.1 hPa Calm     98 % 0.0 mm
06:39 7.4 °C 7.0 °C 1016.1 hPa Calm     98 % 0.0 mm
06:44 7.5 °C 8.0 °C 1016.1 hPa Calm     98 % 0.0 mm
06:49 7.5 °C 8.0 °C 1016.8 hPa Calm     98 % 0.0 mm
06:54 7.5 °C 8.0 °C 1016.8 hPa Calm     98 % 0.0 mm
06:59 7.4 °C 7.0 °C 1016.8 hPa Calm     98 % 0.0 mm
07:04 7.4 °C 7.0 °C 1016.8 hPa WNW 3.2 km/h 3.5 km/h 98 % 0.0 mm
07:07 7.4 °C 7.0 °C 1016.8 hPa Calm   3.5 km/h 98 % 0.0 mm
07:12 7.5 °C 8.0 °C 1016.8 hPa Calm   3.5 km/h 98 % 0.0 mm
07:17 7.5 °C 8.0 °C 1016.8 hPa Calm     98 % 0.0 mm
07:22 7.5 °C 8.0 °C 1016.8 hPa Calm     98 % 0.0 mm
07:27 7.9 °C 8.0 °C 1016.8 hPa Calm     98 % 0.0 mm
07:32 7.9 °C 8.0 °C 1016.8 hPa Calm     98 % 0.0 mm
07:37 8.1 °C 8.0 °C 1016.8 hPa Calm     98 % 0.0 mm
07:42 8.2 °C 8.0 °C 1016.8 hPa Calm     98 % 0.0 mm
07:47 8.5 °C 9.0 °C 1016.8 hPa Calm     98 % 0.0 mm
07:52 8.7 °C 9.0 °C 1016.8 hPa Calm     98 % 0.0 mm
07:57 8.8 °C 9.0 °C 1016.8 hPa Calm     98 % 0.0 mm
08:02 9.2 °C 9.0 °C 1016.8 hPa Calm     98 % 0.0 mm
08:07 9.5 °C 10.0 °C 1016.8 hPa Calm     98 % 0.0 mm
08:12 9.8 °C 10.0 °C 1016.8 hPa Calm     98 % 0.0 mm
08:17 10.1 °C 10.0 °C 1016.8 hPa Calm     98 % 0.0 mm
08:22 10.1 °C 10.0 °C 1016.8 hPa Calm     98 % 0.0 mm
08:27 10.7 °C 11.0 °C 1016.8 hPa Calm     98 % 0.0 mm
08:32 11.2 °C 11.0 °C 1016.8 hPa Calm     98 % 0.0 mm
08:37 11.4 °C 11.0 °C 1016.8 hPa Calm     98 % 0.0 mm
08:42 11.7 °C 12.0 °C 1016.8 hPa Calm     98 % 0.0 mm
08:47 12.0 °C 12.0 °C 1016.8 hPa Calm     98 % 0.0 mm
08:52 12.2 °C 12.0 °C 1016.8 hPa Calm     98 % 0.0 mm
08:57 12.5 °C 13.0 °C 1016.8 hPa Calm     98 % 0.0 mm
09:02 12.8 °C 13.0 °C 1016.8 hPa Calm     98 % 0.0 mm
09:07 13.1 °C 13.0 °C 1016.8 hPa Calm     98 % 0.0 mm
09:12 13.1 °C 13.0 °C 1016.8 hPa Calm     98 % 0.0 mm
09:17 13.1 °C 13.0 °C 1016.8 hPa Calm     98 % 0.0 mm
09:22 13.1 °C 13.0 °C 1016.8 hPa Calm     98 % 0.0 mm
09:27 13.1 °C 13.0 °C 1016.8 hPa Calm     98 % 0.0 mm
09:33 14.1 °C 14.0 °C 1016.8 hPa Calm     98 % 0.0 mm
09:38 14.3 °C 14.0 °C 1016.8 hPa Calm     98 % 0.0 mm
09:43 14.3 °C 14.0 °C 1016.8 hPa Calm   2.1 km/h 98 % 0.0 mm
09:48 14.3 °C 14.0 °C 1016.8 hPa Calm   2.6 km/h 98 % 0.0 mm
09:53 14.8 °C 14.0 °C 1016.8 hPa Calm   6.1 km/h 97 % 0.0 mm
09:58 14.9 °C 15.0 °C 1016.8 hPa Calm   6.1 km/h 97 % 0.0 mm
10:03 14.9 °C 15.0 °C 1016.8 hPa Calm   4.0 km/h 97 % 0.0 mm
10:08 15.8 °C 15.0 °C 1016.8 hPa WNW 1.4 km/h 4.0 km/h 96 % 0.0 mm
10:13 15.8 °C 15.0 °C 1016.8 hPa Calm   4.0 km/h 96 % 0.0 mm
10:18 16.1 °C 15.0 °C 1016.8 hPa Calm   5.5 km/h 94 % 0.0 mm
10:23 16.1 °C 15.0 °C 1016.8 hPa WNW 2.1 km/h 7.6 km/h 94 % 0.0 mm
10:28 16.1 °C 15.0 °C 1016.8 hPa Calm   7.6 km/h 94 % 0.0 mm
10:33 16.4 °C 15.0 °C 1016.1 hPa Calm   6.1 km/h 91 % 0.0 mm
10:38 16.4 °C 15.0 °C 1016.1 hPa WNW 1.8 km/h 6.4 km/h 91 % 0.0 mm
10:43 16.4 °C 15.0 °C 1016.1 hPa Calm   6.4 km/h 91 % 0.0 mm
10:48 17.2 °C 15.0 °C 1016.1 hPa West 4.7 km/h 6.9 km/h 88 % 0.0 mm
10:53 18.0 °C 16.0 °C 1016.1 hPa Calm   6.9 km/h 88 % 0.0 mm
10:58 18.0 °C 16.0 °C 1016.1 hPa West 1.4 km/h 6.9 km/h 88 % 0.0 mm
11:03 18.8 °C 16.0 °C 1016.1 hPa Calm   7.9 km/h 85 % 0.0 mm
11:08 18.8 °C 16.0 °C 1016.1 hPa WNW 6.1 km/h 7.9 km/h 85 % 0.0 mm
11:13 19.3 °C 15.0 °C 1016.1 hPa WNW 1.8 km/h 7.9 km/h 78 % 0.0 mm
11:19 19.3 °C 16.0 °C 1016.1 hPa Calm   10.5 km/h 80 % 0.0 mm
11:24 19.5 °C 15.0 °C 1016.1 hPa West 1.4 km/h 10.5 km/h 76 % 0.0 mm
11:29 19.5 °C 15.0 °C 1016.1 hPa West 6.4 km/h 9.3 km/h 76 % 0.0 mm
11:34 19.5 °C 15.0 °C 1015.1 hPa West 6.9 km/h 6.9 km/h 76 % 0.0 mm
11:39 19.5 °C 15.0 °C 1015.1 hPa West 5.8 km/h 10.1 km/h 76 % 0.0 mm
11:44 20.3 °C 14.0 °C 1015.1 hPa West 2.6 km/h 10.1 km/h 69 % 0.0 mm
11:49 20.5 °C 15.0 °C 1015.1 hPa Calm   10.1 km/h 69 % 0.0 mm
11:54 20.5 °C 15.0 °C 1015.1 hPa West 7.6 km/h 7.6 km/h 69 % 0.0 mm
11:59 20.9 °C 15.0 °C 1015.1 hPa West 8.7 km/h 15.8 km/h 67 % 0.0 mm
12:04 21.2 °C 15.0 °C 1015.1 hPa West 3.5 km/h 15.8 km/h 67 % 0.0 mm
12:09 21.3 °C 15.0 °C 1015.1 hPa West 3.2 km/h 11.6 km/h 66 % 0.0 mm
12:14 21.3 °C 15.0 °C 1015.1 hPa West 9.3 km/h 11.6 km/h 66 % 0.0 mm
12:19 21.2 °C 13.0 °C 1014.1 hPa West 10.5 km/h 11.9 km/h 61 % 0.0 mm
12:24 21.2 °C 13.0 °C 1014.1 hPa West 6.1 km/h 11.9 km/h 61 % 0.0 mm
12:29 20.3 °C 13.0 °C 1014.1 hPa West 3.5 km/h 11.1 km/h 64 % 0.0 mm
12:34 20.5 °C 14.0 °C 1015.1 hPa West 5.8 km/h 11.1 km/h 66 % 0.0 mm
12:39 20.5 °C 14.0 °C 1015.1 hPa West 6.1 km/h 7.9 km/h 66 % 0.0 mm
12:44 20.7 °C 14.0 °C 1015.1 hPa West 7.9 km/h 11.9 km/h 65 % 0.0 mm
12:49 21.1 °C 14.0 °C 1014.1 hPa West 5.5 km/h 14.0 km/h 64 % 0.0 mm
12:54 21.2 °C 14.0 °C 1014.1 hPa West 5.8 km/h 14.0 km/h 64 % 0.0 mm
12:59 21.2 °C 14.0 °C 1014.1 hPa West 5.8 km/h 12.6 km/h 64 % 0.0 mm
13:04 21.1 °C 13.0 °C 1015.1 hPa WSW 5.0 km/h 11.6 km/h 62 % 0.0 mm
13:09 21.2 °C 14.0 °C 1015.1 hPa West 5.8 km/h 15.1 km/h 62 % 0.0 mm
13:14 21.0 °C 13.0 °C 1015.1 hPa South 9.7 km/h 12.6 km/h 61 % 0.0 mm
13:19 21.0 °C 13.0 °C 1015.1 hPa SSE 6.1 km/h 12.6 km/h 61 % 0.0 mm
13:24 21.1 °C 13.0 °C 1015.1 hPa South 10.1 km/h 12.6 km/h 62 % 0.0 mm
13:29 21.1 °C 13.0 °C 1015.1 hPa SSE 6.1 km/h 11.1 km/h 62 % 0.0 mm
13:34 21.7 °C 14.0 °C 1015.1 hPa South 10.5 km/h 10.5 km/h 63 % 0.0 mm
13:39 21.9 °C 14.0 °C 1015.1 hPa Calm   13.7 km/h 61 % 0.0 mm
13:45 21.9 °C 14.0 °C 1015.1 hPa SSE 4.3 km/h 13.7 km/h 61 % 0.0 mm
13:50 21.2 °C 13.0 °C 1015.1 hPa South 11.9 km/h 13.7 km/h 58 % 0.0 mm
13:55 21.2 °C 13.0 °C 1015.1 hPa West 9.7 km/h 13.7 km/h 58 % 0.0 mm
14:00 21.2 °C 13.0 °C 1015.1 hPa SSE 9.3 km/h 13.0 km/h 58 % 0.0 mm
14:05 21.2 °C 13.0 °C 1015.1 hPa SSW 5.5 km/h 11.9 km/h 58 % 0.0 mm
14:10 21.5 °C 13.0 °C 1015.1 hPa SSE 14.0 km/h 14.0 km/h 58 % 0.0 mm
14:15 21.2 °C 12.0 °C 1014.1 hPa South 5.8 km/h 14.0 km/h 56 % 0.0 mm
14:17 21.2 °C 12.0 °C 1014.1 hPa SSE 7.6 km/h 14.0 km/h 56 % 0.0 mm
14:22 21.2 °C 12.0 °C 1014.1 hPa South 8.7 km/h 12.6 km/h 56 % 0.0 mm
14:27 21.0 °C 13.0 °C 1014.1 hPa SSE 11.6 km/h 11.9 km/h 59 % 0.0 mm
14:32 21.3 °C 13.0 °C 1014.1 hPa Calm   11.6 km/h 58 % 0.0 mm
14:37 22.2 °C 14.0 °C 1014.1 hPa South 5.5 km/h 11.6 km/h 60 % 0.0 mm
14:39 22.2 °C 14.0 °C 1014.1 hPa SSE 10.5 km/h 10.5 km/h 60 % 0.0 mm
14:44 22.8 °C 13.0 °C 1014.1 hPa SSE 12.2 km/h 13.0 km/h 55 % 0.0 mm
14:49 22.8 °C 13.0 °C 1014.1 hPa WSW 9.7 km/h 13.0 km/h 55 % 0.0 mm
14:54 22.2 °C 12.0 °C 1014.1 hPa Calm   14.0 km/h 51 % 0.0 mm
14:59 22.5 °C 12.0 °C 1014.1 hPa SSW 6.1 km/h 14.0 km/h 51 % 0.0 mm
15:05 22.5 °C 12.0 °C 1014.1 hPa SSW 7.9 km/h 18.3 km/h 50 % 0.0 mm
15:10 22.5 °C 12.0 °C 1014.1 hPa South 6.1 km/h 18.3 km/h 50 % 0.0 mm
15:15 22.5 °C 12.0 °C 1014.1 hPa SSW 5.5 km/h 12.2 km/h 50 % 0.0 mm
15:20 23.0 °C 13.0 °C 1014.1 hPa SSW 16.9 km/h 16.9 km/h 53 % 0.0 mm
15:25 22.7 °C 11.0 °C 1014.1 hPa South 12.6 km/h 16.9 km/h 47 % 0.0 mm
15:30 22.7 °C 11.0 °C 1014.1 hPa SSW 6.9 km/h 16.3 km/h 47 % 0.0 mm
15:35 22.7 °C 11.0 °C 1014.1 hPa SSW 2.1 km/h 16.3 km/h 47 % 0.0 mm
15:40 21.5 °C 11.0 °C 1014.1 hPa WSW 1.4 km/h 9.7 km/h 49 % 0.0 mm
15:45 21.5 °C 11.0 °C 1013.1 hPa SSW 9.7 km/h 9.7 km/h 49 % 0.0 mm
15:50 21.5 °C 11.0 °C 1013.1 hPa South 15.4 km/h 15.4 km/h 49 % 0.0 mm
15:55 21.5 °C 11.0 °C 1013.1 hPa Calm   15.4 km/h 49 % 0.0 mm
16:00 20.5 °C 11.0 °C 1013.1 hPa SSW 1.4 km/h 7.9 km/h 54 % 0.0 mm
16:05 20.5 °C 11.0 °C 1013.1 hPa SSW 5.8 km/h 10.5 km/h 54 % 0.0 mm
16:10 20.5 °C 11.0 °C 1013.1 hPa SSW 10.1 km/h 10.5 km/h 54 % 0.0 mm
16:15 20.5 °C 11.0 °C 1013.1 hPa Calm   11.1 km/h 54 % 0.0 mm
16:20 20.5 °C 11.0 °C 1013.1 hPa SSW 9.7 km/h 11.1 km/h 54 % 0.0 mm
16:25 20.5 °C 11.0 °C 1013.1 hPa SSE 7.9 km/h 12.6 km/h 54 % 0.0 mm
16:30 20.5 °C 11.0 °C 1013.1 hPa SSE 6.1 km/h 12.6 km/h 54 % 0.0 mm
16:35 20.5 °C 11.0 °C 1013.1 hPa South 4.0 km/h 11.9 km/h 54 % 0.0 mm
16:40 20.5 °C 11.0 °C 1013.1 hPa SSE 4.3 km/h 11.9 km/h 54 % 0.0 mm
16:45 20.5 °C 11.0 °C 1012.1 hPa SSE 9.0 km/h 9.3 km/h 54 % 0.0 mm
16:50 20.5 °C 11.0 °C 1012.1 hPa ESE 4.7 km/h 10.5 km/h 54 % 0.0 mm
16:55 20.7 °C 12.0 °C 1012.1 hPa SE 7.6 km/h 10.5 km/h 56 % 0.0 mm
17:01 20.7 °C 12.0 °C 1013.1 hPa SSE 9.7 km/h 10.5 km/h 56 % 0.0 mm
17:06 20.7 °C 12.0 °C 1013.1 hPa SSE 15.8 km/h 15.8 km/h 56 % 0.0 mm
17:11 20.7 °C 12.0 °C 1013.1 hPa SSE 2.1 km/h 15.8 km/h 56 % 0.0 mm
17:16 20.7 °C 12.0 °C 1013.1 hPa Calm   15.8 km/h 56 % 0.0 mm
17:21 20.7 °C 12.0 °C 1013.1 hPa Calm   9.3 km/h 56 % 0.0 mm
17:26 20.7 °C 12.0 °C 1013.1 hPa SSE 4.7 km/h 9.3 km/h 56 % 0.0 mm
17:31 20.7 °C 12.0 °C 1013.1 hPa Calm   9.3 km/h 56 % 0.0 mm
17:36 20.7 °C 12.0 °C 1013.1 hPa South 8.7 km/h 10.1 km/h 56 % 0.0 mm
17:41 20.7 °C 12.0 °C 1013.1 hPa SSE 6.1 km/h 11.9 km/h 56 % 0.0 mm
17:46 20.7 °C 12.0 °C 1013.1 hPa Calm   11.9 km/h 56 % 0.0 mm
17:51 20.7 °C 12.0 °C 1013.1 hPa Calm   6.1 km/h 56 % 0.0 mm
17:56 20.7 °C 12.0 °C 1013.1 hPa Calm   10.1 km/h 56 % 0.0 mm
18:01 20.7 °C 12.0 °C 1013.1 hPa South 1.8 km/h 10.1 km/h 56 % 0.0 mm
18:06 20.1 °C 11.0 °C 1013.1 hPa South 1.8 km/h 7.9 km/h 56 % 0.0 mm
18:11 20.1 °C 11.0 °C 1013.1 hPa South 5.0 km/h 8.7 km/h 56 % 0.0 mm
18:17 20.1 °C 12.0 °C 1013.1 hPa South 9.3 km/h 9.3 km/h 58 % 0.0 mm
18:22 20.1 °C 12.0 °C 1013.1 hPa South 9.7 km/h 9.7 km/h 58 % 0.0 mm
18:27 20.1 °C 12.0 °C 1013.1 hPa Calm   9.7 km/h 58 % 0.0 mm
18:32 20.0 °C 11.0 °C 1013.1 hPa South 4.7 km/h 7.6 km/h 56 % 0.0 mm
18:37 20.0 °C 11.0 °C 1013.1 hPa Calm   7.6 km/h 56 % 0.0 mm
18:42 19.9 °C 11.0 °C 1013.1 hPa SE 5.5 km/h 9.3 km/h 57 % 0.0 mm
18:47 19.9 °C 11.0 °C 1013.1 hPa Calm   9.3 km/h 57 % 0.0 mm
18:52 19.9 °C 11.0 °C 1013.1 hPa Calm   6.1 km/h 57 % 0.0 mm
18:57 19.7 °C 11.0 °C 1013.1 hPa Calm   5.0 km/h 58 % 0.0 mm
19:02 19.7 °C 11.0 °C 1013.1 hPa Calm   4.3 km/h 58 % 0.0 mm
19:07 19.7 °C 11.0 °C 1013.1 hPa Calm   5.5 km/h 58 % 0.0 mm
19:12 19.7 °C 11.0 °C 1013.1 hPa Calm   5.5 km/h 58 % 0.0 mm
19:17 19.7 °C 11.0 °C 1013.1 hPa Calm   4.0 km/h 58 % 0.0 mm
19:22 19.0 °C 11.0 °C 1013.1 hPa SSE 1.8 km/h 4.7 km/h 60 % 0.0 mm
19:27 19.0 °C 11.0 °C 1013.1 hPa SSE 1.8 km/h 7.2 km/h 60 % 0.0 mm
19:32 19.0 °C 11.0 °C 1012.1 hPa Calm   7.2 km/h 60 % 0.0 mm
19:37 18.6 °C 11.0 °C 1012.1 hPa Calm     62 % 0.0 mm
19:42 18.6 °C 11.0 °C 1012.1 hPa Calm     62 % 0.0 mm
19:47 18.6 °C 11.0 °C 1012.1 hPa Calm     62 % 0.0 mm
19:52 18.6 °C 11.0 °C 1012.1 hPa Calm   4.7 km/h 62 % 0.0 mm
19:57 18.6 °C 11.0 °C 1012.1 hPa Calm   4.7 km/h 62 % 0.0 mm
20:02 18.6 °C 11.0 °C 1012.1 hPa Calm   4.3 km/h 62 % 0.0 mm
20:07 18.6 °C 11.0 °C 1012.1 hPa Calm   3.5 km/h 62 % 0.0 mm
20:12 18.6 °C 11.0 °C 1012.1 hPa Calm   4.3 km/h 62 % 0.0 mm
20:17 18.6 °C 11.0 °C 1013.1 hPa Calm   4.3 km/h 62 % 0.0 mm
20:22 18.6 °C 11.0 °C 1013.1 hPa Calm     62 % 0.0 mm
20:27 18.6 °C 11.0 °C 1013.1 hPa SE 1.8 km/h 7.6 km/h 62 % 0.0 mm
20:32 18.6 °C 11.0 °C 1013.1 hPa Calm   7.6 km/h 62 % 0.0 mm
20:37 18.6 °C 11.0 °C 1013.1 hPa Calm   4.7 km/h 62 % 0.0 mm
20:43 18.6 °C 11.0 °C 1013.1 hPa Calm     62 % 0.0 mm
20:48 18.6 °C 11.0 °C 1012.1 hPa Calm   6.9 km/h 62 % 0.0 mm
20:53 18.6 °C 11.0 °C 1012.1 hPa Calm   6.9 km/h 62 % 0.0 mm
20:58 18.6 °C 11.0 °C 1012.1 hPa SE 2.1 km/h 6.1 km/h 62 % 0.0 mm
21:03 18.6 °C 11.0 °C 1013.1 hPa SE 9.0 km/h 9.0 km/h 62 % 0.0 mm
21:08 18.6 °C 11.0 °C 1013.1 hPa Calm   9.0 km/h 62 % 0.0 mm
21:13 18.6 °C 11.0 °C 1013.1 hPa Calm   5.0 km/h 62 % 0.0 mm
21:18 18.6 °C 11.0 °C 1012.1 hPa Calm   6.1 km/h 62 % 0.0 mm
21:23 18.6 °C 11.0 °C 1012.1 hPa SSE 2.6 km/h 6.9 km/h 62 % 0.0 mm
21:28 17.0 °C 11.0 °C 1012.1 hPa SE 6.9 km/h 6.9 km/h 69 % 0.0 mm
21:33 17.0 °C 11.0 °C 1013.1 hPa ESE 1.8 km/h 6.9 km/h 69 % 0.0 mm
21:38 17.0 °C 11.0 °C 1013.1 hPa Calm   6.9 km/h 69 % 0.0 mm
21:43 17.0 °C 11.0 °C 1013.1 hPa Calm   4.7 km/h 69 % 0.0 mm
21:48 17.0 °C 11.0 °C 1013.1 hPa Calm   4.7 km/h 69 % 0.0 mm
21:53 17.0 °C 11.0 °C 1013.1 hPa Calm   4.0 km/h 69 % 0.0 mm
21:58 17.0 °C 11.0 °C 1013.1 hPa Calm   4.0 km/h 69 % 0.0 mm
22:03 17.0 °C 11.0 °C 1012.1 hPa Calm   6.9 km/h 69 % 0.0 mm
22:08 16.6 °C 12.0 °C 1012.1 hPa SE 9.0 km/h 9.0 km/h 71 % 0.0 mm
22:13 16.6 °C 12.0 °C 1012.1 hPa SSE 5.5 km/h 9.0 km/h 71 % 0.0 mm
22:18 16.6 °C 12.0 °C 1013.1 hPa SE 3.5 km/h 10.5 km/h 71 % 0.0 mm
22:23 16.6 °C 12.0 °C 1013.1 hPa Calm   10.5 km/h 71 % 0.0 mm
22:28 16.6 °C 12.0 °C 1013.1 hPa SE 3.2 km/h 5.0 km/h 71 % 0.0 mm
22:34 16.6 °C 12.0 °C 1013.1 hPa SE 5.8 km/h 5.8 km/h 71 % 0.0 mm
22:39 16.6 °C 12.0 °C 1013.1 hPa Calm   6.1 km/h 71 % 0.0 mm
22:44 16.6 °C 12.0 °C 1013.1 hPa Calm   6.1 km/h 71 % 0.0 mm
22:49 16.7 °C 12.0 °C 1013.1 hPa Calm     71 % 0.0 mm
22:54 16.7 °C 12.0 °C 1013.1 hPa Calm     71 % 0.0 mm
22:59 16.7 °C 12.0 °C 1013.1 hPa SSE 4.0 km/h 4.0 km/h 71 % 0.0 mm
23:04 16.6 °C 12.0 °C 1013.1 hPa SSE 6.9 km/h 6.9 km/h 72 % 0.0 mm
23:09 16.6 °C 12.0 °C 1013.1 hPa South 4.0 km/h 6.9 km/h 72 % 0.0 mm
23:14 16.6 °C 12.0 °C 1013.1 hPa Calm   4.7 km/h 72 % 0.0 mm
23:19 16.6 °C 12.0 °C 1013.1 hPa Calm   4.7 km/h 72 % 0.0 mm
23:24 16.6 °C 12.0 °C 1013.1 hPa Calm   6.9 km/h 72 % 0.0 mm
23:29 16.6 °C 12.0 °C 1013.1 hPa Calm   6.9 km/h 72 % 0.0 mm
23:34 16.6 °C 12.0 °C 1013.1 hPa Calm   2.1 km/h 72 % 0.0 mm
23:39 16.6 °C 12.0 °C 1013.1 hPa Calm   2.1 km/h 72 % 0.0 mm
23:44 16.6 °C 12.0 °C 1013.1 hPa Calm   2.6 km/h 72 % 0.0 mm
23:49 16.6 °C 12.0 °C 1013.1 hPa Calm   2.6 km/h 72 % 0.0 mm
23:55 16.6 °C 12.0 °C 1013.1 hPa Calm     72 % 0.0 mm
Le Gheer Warneton
Courtoisie de Weather Underground - 2.25 mb

Mise a jour : 18/12/2017 23:16:12
Généré par Cumulus 1.9.4 (1099)